Location: Newark
(51.5114°N, 0.0848°W)
Time: 05:21:21
(UTC+00:00)

N. Korean satellite - Pass Details

Date: 25 October 2019
Orbit: 456 x 506 km, 97.2° (Epoch: 14 November)

Event Time Altitude Azimuth Distance (km) Brightness Sun altitude
Rises 05:45:47 0° 17° (NNE) 2,572 10.4 -9.2°
Reaches altitude 10° 05:47:53 10° 22° (NNE) 1,694 9.5 -8.8°
Maximum altitude 05:51:28 52° 100° (E) 627 7.6 -8.3°
Drops below altitude 10° 05:55:03 10° 177° (S) 1,703 9.5 -7.7°
Sets 05:57:10 0° 183° (S) 2,587 10.4 -7.4°
